DECAYED
Showing default

MICRODRAGON, 43935 (Decayed)

Orbit data source: Space-Track

MICRODRAGON, 43935 was a payload satellite owned by VNSC (JP) in LEO that was launched on Fri, 18 Jan 2019 UTC via an EPSILON launch vehicle from the Kagoshima Space Center University Of Tokyo (KSCUT). Payloads include a variety of satellites, spacecraft, and rockets equipped with specific instruments for various scientific and technological missions. These include communications satellites like Starlink; space stations such as the ISS; scientific satellites like the Hubble; Earth observation satellites from companies like Planet Labs, Umbra, and HawkEye 360; GPS; miniature CubeSats for education and research; and military/defense satellites.

Not visible in the next 10 days
MICRODRAGON details
Identifier
43935, 2019-003D
Orbit
Decayed
Last TLE update3 months ago
Origin
Flag of JPVNSC (JP / JPN)
ManufacturerVNSC
MissionDecayed Civil Technology
Bus & MotorMICRODRAGON, Unknown motor
Mass50 kg wet, 50 kg dry
Launch date (UTC)
2019-01-18 (6 years ago)
Launch vehicle
EPSILON
Launch site
Kagoshima Space Center University Of Tokyo (KSCUT)
Object type
Payload
Rocket body
Debris
Shape & HBRBox + 2 Pan, 1.5 m
Radar Cross Section0.514 m², Medium (>0.1 m² and < 1m²)

Expand to show TLE details & history

TLE from 3 months ago
0 MICRODRAGON
1 43935U 19003D   24275.26385918  .16170828  23408-5  14762-3 0  9997
2 43935  97.0439 293.7887 0009366 285.9496  74.0778 16.51424394318676
Epoch: 2024-10-01T06:19Z
Definitive object data (Epoch: 2024-10-01T06:19:57.433Z)
Latitude-0.00002°
Longitude-171.68068°
Altitude137.196 km
Speed7.825 km/s
True Right ascension19h 35m 09s
True Declination0° 00' 00"
Sunlit
Object was in full shadow at TLE epoch
Visualization observer readout
Observer readout values are unavailable because the object's trajectory could not be propagated. This is usually caused when the trajectory data is faulty or the object's orbit has decayed.
Visualization observer readout
Observer readout values are unavailable because the object's trajectory could not be propagated. This is usually caused when the trajectory data is faulty or the object's orbit has decayed.
Orbital elements
Apogee altitude138.462 km
Perigee altitude126.267 km
Semi-major axis6,510.501 km
Eccentricity0.0009366
Inclination97.0439°
RAAN293.7887°
Arg. of periapsis285.9496°
True anomaly74.18104°
Mean anomaly74.0778°
Eccentric anomaly74.12942°
Mean motion4.13163 °/min
BSTAR0.00014762
Orbital period87.13 mins
Loading maneuver chart data...
Loading historical data...
Loading historical data...
Loading historical data...
Loading historical data...
Loading historical data...
Loading historical data...
Loading historical data...

MICRODRAGON Visibility forecast

Observer location: undefined°, undefined

This satellite is decayed
Span
Click to sort rows by Start time (UTC) header in descending order
Start Az.
Max El. time (UTC)
Max El. Az.
Max El.
End time (UTC)
End Az.
|